TimeEDT,TemperatureF,Dew PointF,Humidity,Sea Level PressureIn,VisibilityMPH,Wind Direction,Wind SpeedMPH,Gust SpeedMPH,PrecipitationIn,Events,Conditions,WindDirDegrees,DateUTC
12:52 AM,60.1,46.9,62,29.83,10.0,Calm,Calm,-,0.00,Rain,Light Rain,0,2013-09-08 04:52:00
1:52 AM,55.9,52.0,87,29.82,10.0,Calm,Calm,-,0.01,,Overcast,0,2013-09-08 05:52:00
2:52 AM,55.9,52.0,87,29.80,10.0,Calm,Calm,-,0.01,,Overcast,0,2013-09-08 06:52:00
3:52 AM,55.9,53.1,90,29.79,10.0,Calm,Calm,-,0.00,,Overcast,0,2013-09-08 07:52:00
4:36 AM,55.4,53.6,94,29.78,10.0,Calm,Calm,-,N/A,,Overcast,0,2013-09-08 08:36:00
4:52 AM,55.9,53.1,90,29.78,10.0,Calm,Calm,-,N/A,,Overcast,0,2013-09-08 08:52:00
5:52 AM,55.9,53.1,90,29.76,10.0,Calm,Calm,-,0.00,,Overcast,0,2013-09-08 09:52:00
6:33 AM,55.4,51.8,88,29.78,1.8,WNW,3.5,-,0.10,Rain,Heavy Rain,300,2013-09-08 10:33:00
6:50 AM,55.4,51.8,88,29.78,3.0,Calm,Calm,-,0.18,Rain,Rain,0,2013-09-08 10:50:00
6:51 AM,55.9,52.0,87,29.79,3.0,Calm,Calm,-,0.18,Rain,Light Rain,0,2013-09-08 10:51:00
7:52 AM,55.0,52.0,89,29.79,6.0,Calm,Calm,-,0.03,Rain,Light Rain,0,2013-09-08 11:52:00
8:19 AM,55.4,50.0,82,29.80,9.0,North,12.7,17.3,0.01,Rain,Light Rain,350,2013-09-08 12:19:00
8:30 AM,53.6,48.2,82,29.81,10.0,NNW,6.9,16.1,0.01,,Overcast,340,2013-09-08 12:30:00
8:44 AM,53.6,48.2,82,29.82,10.0,North,3.5,-,0.01,,Overcast,360,2013-09-08 12:44:00
8:52 AM,54.0,48.9,83,29.83,10.0,North,3.5,-,0.01,,Overcast,10,2013-09-08 12:52:00
9:52 AM,54.0,48.9,83,29.85,10.0,WNW,3.5,-,0.00,,Overcast,290,2013-09-08 13:52:00
10:15 AM,55.4,48.2,77,29.84,10.0,West,3.5,-,N/A,,Overcast,260,2013-09-08 14:15:00
10:52 AM,57.0,46.9,69,29.86,10.0,WNW,11.5,18.4,N/A,,Scattered Clouds,300,2013-09-08 14:52:00
11:52 AM,52.0,43.0,71,29.89,10.0,North,10.4,24.2,N/A,,Overcast,360,2013-09-08 15:52:00
12:03 PM,51.8,44.6,76,29.88,10.0,North,6.9,-,0.00,Rain,Light Rain,360,2013-09-08 16:03:00
12:52 PM,54.0,43.0,66,29.90,10.0,Variable,6.9,17.3,0.00,,Overcast,0,2013-09-08 16:52:00
1:42 PM,53.6,44.6,72,29.91,10.0,NW,12.7,23.0,0.01,Rain,Light Rain,310,2013-09-08 17:42:00
1:52 PM,55.0,46.0,72,29.92,10.0,Variable,6.9,17.3,0.01,,Mostly Cloudy,0,2013-09-08 17:52:00
2:52 PM,57.9,39.9,51,29.92,10.0,NW,17.3,23.0,N/A,,Overcast,310,2013-09-08 18:52:00
3:52 PM,55.9,39.9,55,29.94,10.0,NNW,8.1,-,N/A,,Mostly Cloudy,340,2013-09-08 19:52:00
4:52 PM,57.0,37.9,49,29.95,10.0,NNW,8.1,17.3,N/A,,Clear,340,2013-09-08 20:52:00
5:52 PM,57.0,37.9,49,29.97,10.0,NNW,9.2,-,N/A,,Scattered Clouds,330,2013-09-08 21:52:00
6:52 PM,52.0,37.9,59,30.00,10.0,NW,6.9,-,N/A,,Partly Cloudy,310,2013-09-08 22:52:00
7:52 PM,46.0,39.9,79,30.03,10.0,South,3.5,-,N/A,,Clear,170,2013-09-08 23:52:00
8:52 PM,42.1,37.9,85,30.06,10.0,Calm,Calm,-,N/A,,Clear,0,2013-09-09 00:52:00
9:52 PM,41.0,37.0,86,30.09,10.0,Calm,Calm,-,N/A,,Clear,0,2013-09-09 01:52:00
10:52 PM,39.0,36.0,89,30.09,10.0,Calm,Calm,-,N/A,,Clear,0,2013-09-09 02:52:00
11:52 PM,37.0,34.0,89,30.11,10.0,Calm,Calm,-,N/A,,Clear,0,2013-09-09 03:52:00